Voltar ao catálogo

SL-8 DEB

AtivoLEO
NORAD 18274·DEBRIS·🇷🇺 Russia

Lançado Jul 16, 1986 de Plesetsk Cosmodrome

Loading…

Próximas Passagens (próximas 24 horas)

TLE

AtualizadoSource: Space-Track

Época: Sep 14, 2026, 13:27 UTC

1 18274U 86052F   26257.56059828  .00001474  00000-0  24095-3 0  9997
2 18274  74.0420 301.4119 0022606 180.6281 331.2424 14.71663184121321

Acompanhe SL-8 DEB em tempo real com AllMySat

Download on the App Store